www.pogodaiklimat.ru

Погода и климат >> Архив погоды >> Россия >> Краснодарский край >> Анапа


АРХИВ ПОГОДЫ в Анапе

Время (UTC), дата Ветер
(напр.,м/с)
 
Видим.   Явления Облачность Т
(С)
Тd
(С)
f
(%)
Тe
(С)
Тes
(С)
Комфортность P
(гПа)
Po
(гПа)
Тmin
(С)
Tmax
(С)
R
(мм)
R24
(мм)
S
(см)
09 18.04 Ю 6 20 км 9/0
[Ci sp]
+16.7 +8.6 59 +16 +21 тепло 1006.9 1003.0
12 18.04 Ю 7-11
{12}
20 км 9/1 600 м
[Cu med, cong Ac trans Ci sp]
+14.7 +9.3 70 +13 +14 по сезону 1005.7 1001.8
15 18.04 Ю 7-11
{12}
20 км 9/1 600 м
[Cu med, cong Ac trans Ci sp]
+14.7 +9.3 70 +13 +13 тепло 1005.7 1001.8
18 18.04 ЮЗ 11-15
{16}
4000 м слабый ливневой дождь 10/10 300 м
[Cb cap]
+11.0 +10.0 94 +7 +7 по сезону 1009.2 1005.2
21 18.04 ЮЗ 14-19
{19}
10 км слабый ливневой дождь 10/10 300 м
[Cb cap]
+9.4 +6.5 82 +4 +4 прохладно 1009.2 1005.2
00 19.04 ЮЗ 15-19
{21}
10 км {ливн. осадки} 10/10 600 м
[Cb cap]
+8.8 +3.9 71 +3 +3 прохладно 1009.7 1005.7
03 19.04 ЮЗ 17-23
{26}
10 км слабый ливневой дождь 10/10 300 м
[Cb cap]
+7.7 +3.6 75 +1 +1 холодно 1009.6 1005.6 +7.4 7
06 19.04 З 10-13
{25}
10 км слабый ливневой дождь 10/10 300 м
[Cb cap]
+5.6 +3.6 87 -1 -1 очень
холодно
1012.6 1008.6 +5.4
09 19.04 З 12-17
{20}
10 км {ливн. осадки} 10/10 300 м
[Cb cap]
+5.9 +2.3 78 -1 -1 очень
холодно
1016.4 1012.3
12 19.04 З 10-15
{20}
10 км {ливн. осадки} 10/10 300 м
[Cb cap]
+6.8 +2.4 74 +1 +1 очень
холодно
1019.5 1015.4
15 19.04 З 7-11
{15}
10 км 9/9 600 м
[Cb cap]
+7.1 +1.8 69 +3 +3 холодно 1021.1 1017.0 +7.8 2
18 19.04 З 4
{12}
10 км 10/10 600 м
[Cb cap]
+7.2 +1.6 68 +4 +4 холодно 1022.8 1018.7
21 19.04 З 2 10 км 10/10 600 м
[Sc]
+7.3 +1.5 67 +5 +5 прохладно 1023.1 1019.0
00 20.04 В 2 10 км 10/10 600 м
[Sc]
+6.3 +1.7 72 +4 +4 прохладно 1021.9 1017.8
03 20.04 В 3 10 км ясно +4.4 +0.9 78 +1 +1 очень
холодно
1020.5 1016.3 +4.3
06 20.04 СВ 4 20 км 3/0
[Ci fib]
+8.9 +2.6 65 +6 +11 прохладно 1019.3 1015.2
09 20.04 В 3 20 км 4/0
[Ac As]
+14.0 +3.7 50 +13 +23 тепло 1017.0 1013.0
12 20.04 ЮЗ 2 20 км 3/0
[Ac As Ci fib]
+14.9 +4.7 50 +15 +24 тепло 1014.6 1010.7
15 20.04 З 1 20 км 4/0
[Ac As]
+13.6 +5.0 56 +14 +15 тепло 1013.5 1009.5 +16.7
18 20.04 В 3 10 км 3/0
[Ci sp]
+13.0 +5.0 58 +12 +12 тепло 1011.4 1007.5
21 20.04 СВ 3 10 км 9/0
[Ac As Ci sp]
+12.5 +1.7 48 +11 +11 по сезону 1008.2 1004.3
00 21.04 СВ 4 10 км слабый ливневой дождь 10/10 300 м
[Cb cap]
+10.3 +6.9 79 +8 +8 по сезону 1008.2 1004.2
03 21.04 ЮЗ 8-10
{13}
10 км в посл. час ливневой дождь 10/5 600 м
[Cb cap Ac und]
+12.0 +8.1 77 +9 +9 по сезону 1009.3 1005.3 +9.9 2
06 21.04 ЮЗ 6
{16}
10 км в посл. час ливневой дождь 10/10 600 м
[Cb cap]
+9.5 +6.3 80 +6 +6 прохладно 1011.4 1007.4 +9.5
09 21.04 ЮЗ 10-14
{15}
10 км 10/10 600 м
[Cb cap]
+8.4 +4.4 76 +3 +3 очень
холодно
1014.5 1010.4
12 21.04 Ю 10-15
{15}
10 км 10/10 600 м
[Cb cap]
+8.5 +4.2 74 +4 +4 очень
холодно
1014.2 1010.2
15 21.04 ЮЗ 16-19
{19}
10 км 9/9 600 м
[Cb cap]
+9.0 +3.4 68 +3 +3 очень
холодно
1013.7 1009.7 +12.0
18 21.04 ЮЗ 15-19
{19}
10 км 8/8 600 м
[Sc]
+8.4 +2.3 65 +3 +3 холодно 1013.8 1009.7
21 21.04 ЮЗ 19-25
{26}
10 км слабый ливневой дождь 10/10 300 м
[Cb cap]
+7.2 +3.6 78 0 0 очень
холодно
1012.3 1008.3
00 22.04 ЮЗ 18-24
{26}
10 км {ливн. осадки} 8/8 600 м
[Sc]
+7.7 +4.0 77 +1 +1 холодно 1011.7 1007.6
03 22.04 З 10-19
{23}
10 км слабый ливневой дождь 10/10 300 м
[Cb cap]
+6.9 +4.3 83 +1 +1 очень
холодно
1013.8 1009.8 +6.9 2
06 22.04 З 7-13
{19}
10 км в посл. час ливневой дождь 10/10 300 м
[Cb cap]
+6.5 +3.5 81 +2 +2 очень
холодно
1017.9 1013.8 +5.8
09 22.04 ЮЗ 14-18
{18}
10 км 3/3 600 м
[Cu hum]
+9.8 +4.8 71 +5 +5 холодно 1020.1 1016.1
12 22.04 Ю 9-13
{18}
10 км 4/1 600 м
[Cu hum Ci sp]
+10.3 +5.5 72 +6 +7 холодно 1020.3 1016.3
15 22.04 Ю 10-15
{15}
10 км 9/8 600 м
[Sc Ci sp]
+9.1 +5.0 75 +4 +4 холодно 1019.3 1015.3 +10.4 0.8
18 22.04 Ю 8-12
{15}
10 км 8/6 600 м
[Sc Ci sp]
+8.5 +4.5 76 +4 +4 холодно 1018.4 1014.4
21 22.04 Ю 5
{12}
10 км 9/4 600 м
[Sc Ci sp]
+8.2 +3.8 74 +5 +5 прохладно 1016.4 1012.3
00 23.04 ЮЗ 1 10 км 10/10 600 м
[Sc]
+8.1 +3.5 73 +8 +8 по сезону 1014.0 1009.9
03 23.04 СВ 4 10 км 10/10 600 м
[Sc]
+7.0 +3.9 81 +3 +3 холодно 1010.2 1006.1 +6.9
06 23.04 СВ 8-14
{15}
10 км {ливн. осадки} 10/8 600 м
[Cb cap Ac und]
+7.3 +2.9 74 +2 +3 очень
холодно
1005.6 1001.6 +6.8
09 23.04 СВ 8-13
{17}
4000 м слабый ливневой дождь 10/10 300 м
[Cb cap]
+6.1 +4.8 91 +1 +1 очень
холодно
1002.0 998.0
12 23.04 СВ 6-11
{16}
10 км слабый ливневой дождь, в посл. час гроза 10/10 600 м
[Cb cap]
+6.8 +4.6 86 +2 +2 очень
холодно
999.9 995.9
15 23.04 С 4
{12}
4000 м слабый ливневой дождь 10/10 300 м
[Cb cap]
+6.1 +5.1 93 +2 +2 очень
холодно
1003.0 999.0 +8.1 12
18 23.04 З 4-10
{17}
4000 м в посл. час ливневой дождь 10/10 600 м
[Cb cap]
+5.0 +3.5 90 +1 +1 очень
холодно
1008.8 1004.7
21 23.04 ЮЗ 11-16
{16}
4000 м слабый ливневой дождь 10/10 300 м
[Cb cap]
+6.7 +5.2 90 +1 +1 холодно 1011.6 1007.5
00 24.04 ЮЗ 11-14
{17}
10 км {ливн. осадки} 10/10 600 м
[Cb cap]
+8.3 +5.9 85 +3 +3 прохладно 1012.4 1008.4
03 24.04 Ю 9-11
{13}
10 км 10/8 600 м
[Cb cap Ac und]
+9.0 +7.1 88 +4 +4 прохладно 1012.6 1008.6 +4.1 11
06 24.04 Ю 14-19
{20}
4000 м слабый ливневой дождь 10/10 300 м
[Cb cap]
+8.4 +6.4 87 +2 +2 очень
холодно
1012.0 1007.9
09 24.04 З 5-11
{21}
10 км в посл. час ливневой дождь 9/9 300 м
[Cb cap]
+6.8 +4.7 86 +3 +4 очень
холодно
1014.5 1010.4
12 24.04 ЮЗ 9-13
{16}
10 км слабый ливневой дождь 10/10 600 м
[Cb cap]
+8.7 +5.1 78 +4 +4 очень
холодно
1017.1 1013.1
15 24.04 ЮЗ 7
{15}
10 км {ливн. осадки} 4/0
[Ac As]
+9.5 +4.6 71 +6 +6 прохладно 1018.5 1014.5 +9.9 10
18 24.04 З 2
{11}
10 км {ливн. осадки} 6/3 600 м
[Sc diur, vesp Ac As]
+7.8 +3.4 74 +6 +6 прохладно 1021.2 1017.1
21 24.04 З 4 10 км ясно +7.8 +4.3 79 +5 +5 прохладно 1022.4 1018.3
00 25.04 З 5-10
{11}
10 км 5/3 600 м
[Sc Ac As]
+8.4 +3.4 71 +5 +5 прохладно 1023.3 1019.3
03 25.04 З 4-10
{12}
10 км ясно +7.9 +4.1 77 +5 +5 прохладно 1025.3 1021.2 +7.7
06 25.04 З 3
{11}
10 км ясно +10.0 +5.3 73 +8 +14 по сезону 1028.0 1023.9

 

Местоположение метеостанции Анапа (Краснодарский край, Россия): широта 44.88 долгота 37.28 высота над уровнем моря 32 м.

В архиве по умолчанию представлена погода в Анапе за последнюю неделю. Архивные данные за месяц целиком и за предыдущие месяцы, начиная с января 2011 года, Вы можете получить, выбрав интересующий диапазон дат из раскрывающегося списка и нажав кнопку "Ввод!".

Внимание! Время в таблицах - всемирное. Для получения местного времени необходимо прибавить поправку, которая в Анапе равна 3 ч.

Смотрите также архив погоды в соседних городах и на ближайших метеорологических станциях:

Погода в Новороссийске (Краснодарский край, Россия) (48 км)
Погода в Темрюке (Краснодарский край, Россия) (50 км)
Погода в Крымске (Краснодарский край, Россия) (57 км)
Погода в Тамани (Краснодарский край, Россия) (58 км)
Погода в Геленджике (Краснодарский край, Россия) (72 км)
Погода в Славянске-на-Кубани (Краснодарский край, Россия) (80 км)
Погода в Керчи (Крым, Россия) (86 км)
Погода в Джубге (Краснодарский край, Россия) (129 км)
Погода на Мысовом (Крым, Россия) (131 км)
Погода в Краснодаре (Краснодарский край, Россия) (139 км)

Пояснения к столбцам:

Ветер - указаны скорость ветра в м/с - средняя за 10 мин, порывы в срок и между сроками (в фигурных скобках) и направление, откуда дует ветер: С - северный, СВ - северо-восточный, В - восточный, ЮВ - юго-восточный, Ю - южный, ЮЗ - юго-западный, З - западный, СЗ - северо-западный.
Видимость - горизонтальная дальность видимости в метрах или километрах. При видимости от 1 до 10 км при отсутствии осадков обычно наблюдается дымка, при ухудшении видимости до 1 км и менее - туман. В сухую погоду видимость может ухудшаться дымом, пылью или мглою.
Явления - указаны атмосферные явления, наблюдавшиеся в срок или в последний час перед сроком; фигурными скобками обозначены явления, наблюдавшиеся между сроками (за 1-3 часа до срока); квадратными скобками обозначены град или гололедные отложения с указанием их диаметра в мм.
Облачность - указаны через наклонную черту общая и нижняя облачность в баллах и высота нижней границы облаков в метрах; квадратными скобками обозначены формы облаков: Ci - перистые, Cs - перисто-слоистые, Cc - перисто-кучевые, Ac - высококучевые, As - высокослоистые, Sc - слоисто-кучевые, Ns - слоисто-дождевые, Cu - кучевые, Cb - кучево-дождевые. Подробнее классификацию облаков см. в Атласе облаков (PDF).
T - Температура воздуха - температура, измеренная на высоте 2 м над землей.
Td - Температура точки росы - температура, при понижении до которой содержащийся в воздухе водяной пар достигнет насыщения.
f - Относительная влажность воздуха - влажноcть воздуха, измеренная на высоте 2 м над землей.
Te - Эффективная температура - температура, которую ощущает одетый по сезону человек в тени. Характеристика душности погоды. При расчете учитывается влияние влажности воздуха и скорости ветра на теплоощущения человека.
Tes - Эффективная температура на солнце - температура, которую ощущает человек, с поправкой на солнечный нагрев. Характеристика знойности погоды. Зависит от высоты солнца над горизонтом, облачности и скорости ветра. Ночью, в пасмурную погоду, а также при ветре 12 м/с и более поправка равна нулю.
P - Атмосферное давление - приведенное к уровню моря атмосферное давление.
Po - Атмосферное давление - измеренное на уровне метеостанции атмосферное давление.
Tmin - Минимальная температура - минимум температуры воздуха на высоте 2 м над землей.
Tmax - Максимальная температура - максимум температуры воздуха на высоте 2 м над землей.
R - Количество осадков - Количество выпавших осадков за период времени, мм. При наведении курсора мыши на число - период времени, за который выпало указанное количество осадков.
R24 - Количество осадков - Количество выпавших осадков за 24 часа, мм.
S - Снежный покров - Высота снежного покрова, см. При наведении курсора мыши на число - состояние снежного покрова и степень покрытия местности в баллах.